Regional Weather Roundup
Issued by NWS

Home | Current Version | Previous Version | Text Only | Print | Product List | Glossary On
Versions: 1 2 3 4 5 6 7 8 9 10 11 12 13 14 15 16 17 18 19 20 21 22 23 24 25 26 27 28 29 30 31 32 33 34 35 36 37 38 39 40 41 42 43 44 45 46 47 48 49 50
000
ASUS46 KSTO 231715
RWRCA

NORTHERN AND CENTRAL CA REGIONAL WEATHER ROUNDUP
NATIONAL WEATHER SERVICE SACRAMENTO CA
900 AM PST THU FEB 23 2017

NOTE: FAIR INDICATES FEW OR NO CLOUDS BELOW 12,000 FEET WITH NO
SIGNIFICANT WEATHER AND/OR OBSTRUCTIONS TO VISIBILITY.

CAZ001-003-231800-
NORTHWEST AREA

CITY           SKY/WX    TMP DP  RH WIND       PRES   REMARKS
CRESCENT CITY  SUNNY     40  37  89 E6        30.30R
UKIAH          SUNNY     38  33  82 CALM      30.25R
$$

CAZ006-505>513-231800-
BAY AREA

CITY           SKY/WX    TMP DP  RH WIND       PRES   REMARKS
SANTA ROSA     SUNNY     42  34  73 NE3       30.24R
SAN RAFAEL     N/A       42  MM  MM MISG
NAPA           SUNNY     43  34  70 N5        30.25R
CONCORD        SUNNY     45  33  63 W7        30.25R
OAKLAND CITY   N/A      MM  MM  MM MISG
OAKLAND        MOSUNNY   48  34  58 CALM      30.26R
SAN FRAN CITY  N/A       45  MM  53 MISG
SAN FRAN ARPT  MOSUNNY   48  32  53 W10       30.25R
LIVERMORE      SUNNY     44  31  60 W3        30.23R
HAYWARD        SUNNY     48  31  51 N3        30.25R
REDWOOD CITY   N/A       47  MM  56 MISG
MOFFETT ARPT   MOSUNNY   48  36  63 N10       30.26S
SAN JOSE ARPT  MOSUNNY   46  35  65 E3        30.25S
$$
CAZ034-037-514>518-231800-
CENTRAL COAST

CITY           SKY/WX    TMP DP  RH WIND       PRES   REMARKS
WATSONVILLE    SUNNY     47  36  65 VRB3      30.24S
SALINAS        SUNNY     46  35  65 CALM      30.25R
MONTEREY       SUNNY     48  37  65 W7        30.25S
SAN LUIS OBISP SUNNY     51  33  50 N10       30.21S
SANTA MARIA    SUNNY     47  37  68 N6        30.21S
$$
CAZ015-016-231800-
NORTHERN SACRAMENTO VALLEY

CITY           SKY/WX    TMP DP  RH WIND       PRES   REMARKS
REDDING        SUNNY     40  35  83 NE3       30.20S
RED BLUFF      SUNNY     42  33  70 N7        30.22S
OROVILLE       SUNNY     43  36  76 SE5       30.24R
$$
CAZ016>018-231800-
SOUTHERN SACRAMENTO VALLEY

CITY           SKY/WX    TMP DP  RH WIND       PRES   REMARKS
AUBURN         MOSUNNY   36  36 100 CALM      30.19R
BEALE AFB      SUNNY     42  37  80 CALM      30.22R
LINCOLN        CLOUDY    43  36  75 SE3       30.23R
MARYSVILLE     SUNNY     42  38  85 NE3       30.24R
SAC INTL ARPT  MOSUNNY   43  41  93 CALM      30.23R
MATHER AIRPORT MOSUNNY   43  37  81 CALM      30.24R
DOWNTOWN SAC   N/A       44  MM  MM MISG
SAC EXEC ARPT  SUNNY     45  40  82 CALM      30.24R
VACAVILLE      PTSUNNY   45  33  63 CALM      30.24R
TRAVIS AFB     SUNNY     44  33  67 CALM      30.22R
$$
CAZ019>021-231800-
SAN JOAQUIN VALLEY

CITY           SKY/WX    TMP DP  RH WIND       PRES   REMARKS
STOCKTON       SUNNY     45  35  68 W12       30.23R
MODESTO        SUNNY     46  32  58 NW8       30.23R
MERCED         SUNNY     44  33  65 NW12      30.23R
LEMOORE        SUNNY     45  34  65 NW9       30.23R
FRESNO         MOSUNNY   43  35  73 NW10      30.22R
HANFORD        SUNNY     45  37  73 NW7       30.23R
PORTERVILLE    SUNNY     42  38  85 CALM      30.23S
BAKERSFIELD    PTSUNNY   44  37  76 NW6       30.22R
$$
CAZ011-012-071-231800-
NORTHERN MOUNTAINS

CITY           SKY/WX    TMP DP  RH WIND       PRES   REMARKS
YREKA          CLOUDY    30  27  88 CALM      30.19R
MOUNT SHASTA   CLOUDY    31  19  61 VRB7      30.12R WCI  24
ALTURAS        CLOUDY    23  18  81 E3        30.06R
$$
CAZ011-012-071-231800-
SIERRA NEVADA MTNS

CITY           SKY/WX    TMP DP  RH WIND       PRES   REMARKS
BLUE CANYON    CLOUDY    23  22  96 CALM      30.04S
TRUCKEE        CLOUDY    14  12  92 CALM      30.00S
TAHOE VLY ARPT PTSUNNY   19  13  77 S6        29.97R HAZE    WCI  11
MAMMOTH LAKES  FAIR      19   0  42 SE3       29.93R
$$




USA.gov is the U.S. government's official web portal to all federal, state and local government web resources and services.